OpenBCM V1.13 (Linux)

Packet Radio Mailbox

DB0FHN

[JN59NK Nuernberg]

 Login: GUEST





  
I6KZR  > KEPLER   05.03.03 22:20l 1460 Lines 39193 Bytes #999 (0) @ WW
BID : 27380_IK6WID
Read: DB0FHN GUEST
Subj: Old Istantrak Keplerians #064
Path: DB0FHN<DB0RGB<DB0IGL<DB0FSG<I4UKI<I6ZLO<IK6WID
Sent: 030305/1943Z @:IK6WID.#AP.IMAR.ITA.EU #:27380 [MONTE URANO]  FBB7.00i
From: I6KZR@IK6WID.#AP.IMAR.ITA.EU
To  : KEPLER@WW


Satellite: OSCAR 7
Catalog number: 07530
Epoch time:      103063.65784427
Element set:     167 
Inclination:      101.7590 deg
RA of node:       111.3114 deg
Eccentricity:    0.0012264
Arg of perigee:    51.0273 deg
Mean anomaly:     309.1886 deg
Mean motion:   12.53564695 rev/day
Decay rate:   -2.9000E-007 rev/day^2
Epoch rev:           29495
Checksum:              296

Satellite: GOES 2
Catalog number: 10061
Epoch time:      103062.76944659
Element set:     106 
Inclination:       14.1377 deg
RA of node:        13.3235 deg
Eccentricity:    0.0012624
Arg of perigee:   200.8418 deg
Mean anomaly:     159.1157 deg
Mean motion:    0.99396945 rev/day
Decay rate:   -2.2100E-006 rev/day^2
Epoch rev:            3896
Checksum:              285

Satellite: GOES 3
Catalog number: 10953
Epoch time:      103062.89700804
Element set:     941 
Inclination:       13.4165 deg
RA of node:        17.1298 deg
Eccentricity:    0.0005841
Arg of perigee:   343.7170 deg
Mean anomaly:      16.2812 deg
Mean motion:    1.00279545 rev/day
Decay rate:   -1.0600E-006 rev/day^2
Epoch rev:            4363
Checksum:              265

Satellite: GOES 6
Catalog number: 14050
Epoch time:      103063.00530959
Element set:     428 
Inclination:       10.4192 deg
RA of node:        35.4742 deg
Eccentricity:    0.0004593
Arg of perigee:   345.1505 deg
Mean anomaly:      14.8975 deg
Mean motion:    1.00306906 rev/day
Decay rate:    2.2999E-007 rev/day^2
Epoch rev:           13077
Checksum:              283

Satellite: OSCAR 10
Catalog number: 14129
Epoch time:      103053.29347507
Element set:     920 
Inclination:       25.9661 deg
RA of node:       163.6642 deg
Eccentricity:    0.6025305
Arg of perigee:   329.8586 deg
Mean anomaly:       6.1874 deg
Mean motion:    2.05867335 rev/day
Decay rate:   -1.3500E-006 rev/day^2
Epoch rev:           12014
Checksum:              290

Satellite: OSCAR 11 (UoSA
Catalog number: 14781
Epoch time:      103064.23430844
Element set:     87 
Inclination:       98.1193 deg
RA of node:        38.2721 deg
Eccentricity:    0.0009332
Arg of perigee:   156.7549 deg
Mean anomaly:     203.4088 deg
Mean motion:   14.78032714 rev/day
Decay rate:    1.2380E-005 rev/day^2
Epoch rev:            1840
Checksum:              292

Satellite: NOAA 10
Catalog number: 16969
Epoch time:      103063.99174800
Element set:     685 
Inclination:       98.7311 deg
RA of node:        58.0733 deg
Eccentricity:    0.0013402
Arg of perigee:    47.4631 deg
Mean anomaly:     312.7679 deg
Mean motion:   14.27069193 rev/day
Decay rate:    1.3100E-006 rev/day^2
Epoch rev:           85596
Checksum:              320

Satellite: GOES 7
Catalog number: 17561
Epoch time:      103063.39816912
Element set:     875 
Inclination:        7.6275 deg
RA of node:        55.4626 deg
Eccentricity:    0.0005432
Arg of perigee:   264.7758 deg
Mean anomaly:     165.1898 deg
Mean motion:    1.00256649 rev/day
Decay rate:    3.4999E-007 rev/day^2
Epoch rev:            4188
Checksum:              348

Satellite: COSMOS 1861
Catalog number: 18129
Epoch time:      103064.23451884
Element set:     210 
Inclination:       82.9266 deg
RA of node:       135.7188 deg
Eccentricity:    0.0011081
Arg of perigee:   178.7967 deg
Mean anomaly:     181.3214 deg
Mean motion:   13.72702167 rev/day
Decay rate:    4.7000E-007 rev/day^2
Epoch rev:           78652
Checksum:              320

Satellite: EUTELSAT 1-F4 
Catalog number: 18351
Epoch time:      103059.07635020
Element set:     44 
Inclination:        7.2160 deg
RA of node:        58.6101 deg
Eccentricity:    0.0006917
Arg of perigee:   200.9393 deg
Mean anomaly:     159.1775 deg
Mean motion:    0.98687115 rev/day
Decay rate:    1.3000E-007 rev/day^2
Epoch rev:            4277
Checksum:              282

Satellite: NOAA 11
Catalog number: 19531
Epoch time:      103064.01216883
Element set:     522 
Inclination:       98.8996 deg
RA of node:       145.3454 deg
Eccentricity:    0.0011903
Arg of perigee:   157.8313 deg
Mean anomaly:     202.3377 deg
Mean motion:   14.14543520 rev/day
Decay rate:    1.2100E-006 rev/day^2
Epoch rev:           74484
Checksum:              287

Satellite: ASTRA 1A
Catalog number: 19688
Epoch time:      103062.90298781
Element set:     584 
Inclination:        1.4267 deg
RA of node:        94.6968 deg
Eccentricity:    0.0004002
Arg of perigee:   238.8547 deg
Mean anomaly:     157.9372 deg
Mean motion:    1.00271478 rev/day
Decay rate:    2.2999E-007 rev/day^2
Epoch rev:            3233
Checksum:              332

Satellite: OSCAR 14 (UOSA
Catalog number: 20437
Epoch time:      103063.76034515
Element set:     178 
Inclination:       98.2687 deg
RA of node:       106.6937 deg
Eccentricity:    0.0010910
Arg of perigee:   154.8713 deg
Mean anomaly:     205.3003 deg
Mean motion:   14.31241765 rev/day
Decay rate:    8.6000E-007 rev/day^2
Epoch rev:           68452
Checksum:              296

Satellite: OSCAR 15 (UOSA
Catalog number: 20438
Epoch time:      103063.65032991
Element set:     780 
Inclination:       98.2459 deg
RA of node:        95.6489 deg
Eccentricity:    0.0009791
Arg of perigee:   166.1468 deg
Mean anomaly:     193.9986 deg
Mean motion:   14.30201052 rev/day
Decay rate:    5.5999E-007 rev/day^2
Epoch rev:           68417
Checksum:              368

Satellite: OSCAR 16 (PACS
Catalog number: 20439
Epoch time:      103063.63312087
Element set:     862 
Inclination:       98.3150 deg
RA of node:       118.3392 deg
Eccentricity:    0.0011101
Arg of perigee:   162.3595 deg
Mean anomaly:     197.7979 deg
Mean motion:   14.31476758 rev/day
Decay rate:    1.3300E-006 rev/day^2
Epoch rev:           68454
Checksum:              314

Satellite: OSCAR 17 (DOVE
Catalog number: 20440
Epoch time:      103063.68918721
Element set:     731 
Inclination:       98.3362 deg
RA of node:       122.3194 deg
Eccentricity:    0.0010970
Arg of perigee:   160.8364 deg
Mean anomaly:     199.3233 deg
Mean motion:   14.31754912 rev/day
Decay rate:    1.1600E-006 rev/day^2
Epoch rev:           68462
Checksum:              296

Satellite: OSCAR 18 (WEBE
Catalog number: 20441
Epoch time:      103064.52173984
Element set:     26 
Inclination:       98.3311 deg
RA of node:       122.3193 deg
Eccentricity:    0.0011841
Arg of perigee:   159.6224 deg
Mean anomaly:     200.5435 deg
Mean motion:   14.31558412 rev/day
Decay rate:    1.1700E-006 rev/day^2
Epoch rev:           68472
Checksum:              273

Satellite: OSCAR 19 (LUSA
Catalog number: 20442
Epoch time:      103064.21891145
Element set:     977 
Inclination:       98.3444 deg
RA of node:       125.0790 deg
Eccentricity:    0.0011826
Arg of perigee:   159.8105 deg
Mean anomaly:     200.3547 deg
Mean motion:   14.31721505 rev/day
Decay rate:    9.7999E-007 rev/day^2
Epoch rev:           68473
Checksum:              328

Satellite: JAS 1B (FUJI 2
Catalog number: 20480
Epoch time:      103063.88980486
Element set:     482 
Inclination:       99.0477 deg
RA of node:        23.9400 deg
Eccentricity:    0.0540350
Arg of perigee:   331.4694 deg
Mean anomaly:      25.7783 deg
Mean motion:   12.83330445 rev/day
Decay rate:   -3.6000E-007 rev/day^2
Epoch rev:           61235
Checksum:              301

Satellite: HST
Catalog number: 20580
Epoch time:      103064.22488426
Element set:     347 
Inclination:       28.4686 deg
RA of node:       302.8598 deg
Eccentricity:    0.0003943
Arg of perigee:    71.8719 deg
Mean anomaly:      66.1950 deg
Mean motion:   14.97881867 rev/day
Decay rate:    3.0539E-005 rev/day^2
Epoch rev:           50483
Checksum:              339

Satellite: EUTELSAT 2-F1
Catalog number: 20777
Epoch time:      103058.86735716
Element set:     40 
Inclination:        3.5291 deg
RA of node:        84.4541 deg
Eccentricity:    0.0003426
Arg of perigee:   323.2557 deg
Mean anomaly:     137.7336 deg
Mean motion:    1.00272316 rev/day
Decay rate:   -1.1600E-006 rev/day^2
Epoch rev:            2619
Checksum:              273

Satellite: FENGYUN 1B
Catalog number: 20788
Epoch time:      103064.51910941
Element set:     896 
Inclination:       99.0278 deg
RA of node:        46.5547 deg
Eccentricity:    0.0016124
Arg of perigee:   185.9599 deg
Mean anomaly:     174.1378 deg
Mean motion:   14.02143263 rev/day
Decay rate:    3.0900E-006 rev/day^2
Epoch rev:           63963
Checksum:              328

Satellite: EUTELSAT 2-F2
Catalog number: 21056
Epoch time:      103058.89572918
Element set:     621 
Inclination:        2.7523 deg
RA of node:        87.8292 deg
Eccentricity:    0.0003750
Arg of perigee:   291.4980 deg
Mean anomaly:     148.8290 deg
Mean motion:    1.00271203 rev/day
Decay rate:    1.0200E-006 rev/day^2
Epoch rev:            3197
Checksum:              282

Satellite: INFORMATOR 1
Catalog number: 21087
Epoch time:      103064.18584462
Element set:     603 
Inclination:       82.9431 deg
RA of node:       306.5840 deg
Eccentricity:    0.0033910
Arg of perigee:   207.9136 deg
Mean anomaly:     152.0200 deg
Mean motion:   13.74927971 rev/day
Decay rate:    6.2999E-007 rev/day^2
Epoch rev:           60689
Checksum:              316

Satellite: COSMOS 2123
Catalog number: 21089
Epoch time:      103063.80942193
Element set:     517 
Inclination:       82.9243 deg
RA of node:       170.8167 deg
Eccentricity:    0.0027589
Arg of perigee:   246.7328 deg
Mean anomaly:     113.0920 deg
Mean motion:   13.74405665 rev/day
Decay rate:    5.9000E-007 rev/day^2
Epoch rev:           60574
Checksum:              416

